Joliet, IL

4:21 AM CDT on September 21, 2017 (GMT -0500)
Joliet Regional

Weather History for KJOT - March, 2014

Change the Weather History Date:

Friday, March 7, 2014

  Actual Average (KARR) Record (KARR)
Temperature  
Mean Temperature 28 °F -  
Max Temperature 46 °F 37 °F 78 °F (2000)
Min Temperature 9 °F 20 °F -1 °F (1999)
Degree Days  
Heating Degree Days 38    
Moisture  
Dew Point 23 °F    
Average Humidity 75    
Maximum Humidity 96    
Minimum Humidity 45    
Precipitation  
Precipitation 0.00 in - - ()
Sea Level Pressure  
Sea Level Pressure 29.98 in    
Wind  
Wind Speed 2 mph (South)    
Max Wind Speed 13 mph    
Max Gust Speed 16 mph    
Visibility 6 miles    
Events Rain    
Averages and records for this station are not official NWS values.
T = Trace of Precipitation, MM = Missing Value Source: NWS Daily Summary

Daily Weather History Graph

Daily Weather History Graph

Search for Another Location

Airport or City:

Trip Planner

Search our weather history database for the weather conditions in past years. The results will help you decide how hot, cold, wet, or windy it might be!

Date:

Astronomy

Mar. 07, 2014 Rise Set
Actual Time 6:17 AM CST 5:50 PM CST
Civil Twilight 5:50 AM CST 6:18 PM CST
Nautical Twilight 5:18 AM CST 6:50 PM CST
Astronomical Twilight 4:45 AM CST 7:22 PM CST
Moon 10:05 AM CST (3/7) No Moon Set
Length of Visible Light 12h 27m
Length of Day
11h 32m
Waxing Crescent, 42% of the Moon is Illuminated
Mar 7
Waxing Crescent
Mar 8
First Quarter
Mar 16
Full
Mar 23
Last Quarter
Mar 30
New

Hourly Weather History & Observations

Time (CST) Temp. Windchill Dew Point Humidity Pressure Visibility Wind Dir Wind Speed Gust Speed Precip Events Conditions
12:15 AM 16.7 °F - 11.8 °F 81% 30.09 in 10.0 mi Calm Calm - N/A   Clear
12:35 AM 16.3 °F - 12.2 °F 84% 30.09 in 7.0 mi Calm Calm - N/A   Clear
12:55 AM 16.9 °F - 12.6 °F 83% 30.09 in 7.0 mi Calm Calm - N/A   Clear
1:15 AM 15.3 °F - 11.7 °F 86% 30.08 in 7.0 mi Calm Calm - N/A   Clear
1:35 AM 13.6 °F - 10.4 °F 87% 30.08 in 7.0 mi Calm Calm - N/A   Clear
1:55 AM 12.4 °F - 9.0 °F 86% 30.07 in 5.0 mi Calm Calm - N/A   Clear
2:15 AM 17.2 °F - 14.4 °F 88% 30.06 in 7.0 mi Calm Calm - N/A   Clear
2:35 AM 14.7 °F - 11.5 °F 87% 30.05 in 5.0 mi Calm Calm - N/A   Clear
2:55 AM 14.5 °F - 11.3 °F 87% 30.05 in 5.0 mi Calm Calm - N/A   Clear
3:15 AM 12.9 °F - 9.7 °F 87% 30.04 in 4.0 mi Calm Calm - N/A   Clear
3:35 AM 10.9 °F - 9.0 °F 92% 30.04 in 3.0 mi Calm Calm - N/A   Clear
3:55 AM 13.3 °F - 11.5 °F 93% 30.04 in 3.0 mi Calm Calm - N/A   Clear
4:15 AM 13.5 °F - 11.7 °F 93% 30.03 in 3.0 mi Calm Calm - N/A   Clear
4:35 AM 13.1 °F - 11.3 °F 93% 30.03 in 3.0 mi Calm Calm - N/A   Clear
4:55 AM 14.7 °F - 12.7 °F 92% 30.03 in 3.0 mi Calm Calm - N/A   Clear
5:15 AM 10.9 °F - 9.0 °F 92% 30.03 in 1.8 mi Calm Calm - N/A   Mist
5:35 AM 10.2 °F - 7.5 °F 89% 30.03 in 1.2 mi Calm Calm - N/A   Mist
5:55 AM 9.7 °F - 7.3 °F 90% 30.01 in 2.0 mi Calm Calm - N/A   Clear
6:15 AM 11.8 °F 5.7 °F 9.3 °F 90% 30.01 in 2.5 mi SE 3.5 mph - N/A   Clear
6:35 AM 14.7 °F - 12.7 °F 92% 30.02 in 2.5 mi Calm Calm - N/A   Clear
6:55 AM 13.3 °F - 11.3 °F 92% 30.01 in 2.0 mi Calm Calm - N/A   Clear
7:15 AM 16.9 °F 11.5 °F 14.9 °F 92% 30.01 in 2.5 mi SSE 3.5 mph - N/A   Clear
7:35 AM 19.2 °F - 17.4 °F 93% 30.02 in 3.0 mi Calm Calm - N/A   Clear
7:55 AM 21.2 °F 14.9 °F 19.4 °F 93% 30.02 in 3.0 mi SSE 4.6 mph - N/A   Clear
8:15 AM 23.4 °F 17.4 °F 21.2 °F 91% 30.02 in 4.0 mi South 4.6 mph - N/A   Clear
8:35 AM 26.4 °F - 21.0 °F 80% 30.02 in 4.0 mi Calm Calm - N/A   Haze
8:55 AM 29.1 °F 24.1 °F 21.9 °F 74% 30.01 in 5.0 mi SSE 4.6 mph - N/A   Haze
9:15 AM 30.9 °F 24.3 °F 22.3 °F 70% 30.00 in 5.0 mi SSE 6.9 mph - N/A   Haze
9:35 AM 32.2 °F 26.7 °F 22.6 °F 68% 29.99 in 7.0 mi South 5.8 mph - N/A   Clear
9:55 AM 34.2 °F 28.2 °F 23.5 °F 65% 29.99 in 7.0 mi South 6.9 mph - N/A   Clear
10:15 AM 36.5 °F 31.0 °F 24.4 °F 62% 29.99 in 7.0 mi South 6.9 mph - N/A   Clear
10:35 AM 39.2 °F 33.0 °F 24.3 °F 55% 29.99 in 10.0 mi SSW 9.2 mph - N/A   Clear
10:55 AM 40.1 °F 34.1 °F 24.6 °F 54% 29.99 in 10.0 mi South 9.2 mph - N/A   Clear
11:15 AM 41.0 °F 36.4 °F 24.8 °F 53% 29.97 in 10.0 mi SSE 6.9 mph - N/A   Clear
11:30 AM 41.7 °F 36.7 °F 24.4 °F 50% 29.97 in 10.0 mi South 8.1 mph - N/A   Clear
11:55 AM 42.8 °F 38.0 °F 24.1 °F 48% 29.96 in 10.0 mi SSE 8.1 mph - N/A   Clear
12:15 PM 43.0 °F 38.2 °F 24.6 °F 48% 29.96 in 10.0 mi South 8.1 mph - N/A   Clear
12:35 PM 43.2 °F 38.4 °F 23.9 °F 47% 29.95 in 10.0 mi SSW 8.1 mph - N/A   Clear
12:55 PM 43.9 °F 37.9 °F 24.3 °F 46% 29.94 in 10.0 mi SSW 11.5 mph - N/A   Clear
1:15 PM 44.2 °F 38.0 °F 25.7 °F 48% 29.93 in 10.0 mi South 12.7 mph - N/A   Clear
1:35 PM 45.1 °F 39.5 °F 25.0 °F 45% 29.91 in 10.0 mi SSW 11.5 mph 16.1 mph N/A   Clear
1:55 PM 45.0 °F 38.9 °F 25.9 °F 47% 29.91 in 10.0 mi South 12.7 mph - N/A   Clear
2:15 PM 45.5 °F 40.8 °F 27.0 °F 48% 29.91 in 10.0 mi South 9.2 mph - N/A   Clear
2:35 PM 45.7 °F 41.0 °F 28.0 °F 50% 29.90 in 10.0 mi SSW 9.2 mph - N/A   Clear
2:55 PM 46.0 °F 40.2 °F 28.0 °F 50% 29.90 in 10.0 mi South 12.7 mph - N/A   Clear
3:15 PM 46.4 °F 42.4 °F 28.4 °F 50% 29.89 in 10.0 mi SSW 8.1 mph - N/A   Clear
3:35 PM 45.9 °F 41.2 °F 29.8 °F 54% 29.89 in 10.0 mi South 9.2 mph - N/A   Clear
3:55 PM 44.8 °F 39.4 °F 30.2 °F 57% 29.89 in 10.0 mi SSW 10.4 mph - N/A   Clear
4:10 PM 44.6 °F 40.2 °F 31.3 °F 60% 29.89 in 10.0 mi SSW 8.1 mph - N/A   Clear
4:35 PM 43.7 °F 39.7 °F 31.6 °F 63% 29.90 in 10.0 mi SSW 6.9 mph - N/A   Clear
4:55 PM 43.7 °F 40.3 °F 32.0 °F 63% 29.90 in 10.0 mi SSW 5.8 mph - N/A   Clear
5:15 PM 43.2 °F 39.7 °F 32.0 °F 65% 29.91 in 10.0 mi SSW 5.8 mph - N/A   Clear
5:35 PM 43.0 °F 41.3 °F 32.0 °F 65% 29.91 in 10.0 mi SSW 3.5 mph - N/A   Clear
5:55 PM 41.2 °F 39.2 °F 32.0 °F 70% 29.91 in 10.0 mi South 3.5 mph - N/A   Clear
6:15 PM 41.2 °F 39.2 °F 32.0 °F 70% 29.91 in 10.0 mi South 3.5 mph - N/A   Clear
6:35 PM 39.7 °F - 32.0 °F 74% 29.91 in 7.0 mi Calm Calm - N/A   Clear
6:55 PM 37.0 °F - 31.5 °F 80% 29.92 in 7.0 mi Calm Calm - N/A   Clear
7:15 PM 38.3 °F - 32.0 °F 78% 29.93 in 7.0 mi Calm Calm - N/A   Scattered Clouds
7:35 PM 36.5 °F - 31.8 °F 83% 29.94 in 7.0 mi Calm Calm - N/A   Scattered Clouds
7:55 PM 40.5 °F 38.4 °F 32.2 °F 72% 29.94 in 7.0 mi West 3.5 mph - N/A   Clear
8:15 PM 39.7 °F - 32.0 °F 74% 29.95 in 7.0 mi Calm Calm - N/A   Scattered Clouds
8:35 PM 38.7 °F - 32.2 °F 78% 29.96 in 5.0 mi Calm Calm - N/A   Haze
8:50 PM 37.9 °F - 32.0 °F 79% 29.96 in 5.0 mi Calm Calm - N/A   Haze
9:15 PM 34.9 °F - 31.3 °F 87% 29.96 in 5.0 mi Calm Calm - N/A   Mostly Cloudy
9:35 PM 35.1 °F - 32.0 °F 89% 29.97 in 4.0 mi Calm Calm - N/A   Scattered Clouds
9:55 PM 35.6 °F - 32.0 °F 87% 29.97 in 4.0 mi Calm Calm - N/A Rain Rain
10:15 PM 35.1 °F - 32.0 °F 89% 29.97 in 4.0 mi Calm Calm - N/A   Clear
10:35 PM 34.5 °F - 32.2 °F 91% 29.97 in 3.0 mi Calm Calm - N/A   Clear
10:55 PM 34.9 °F - 32.5 °F 91% 29.97 in 2.0 mi Calm Calm - N/A   Clear
11:15 PM 33.8 °F - 32.0 °F 93% 29.97 in 2.0 mi Calm Calm - N/A   Clear
11:35 PM 34.0 °F - 32.2 °F 93% 29.97 in 2.0 mi Calm Calm - N/A   Clear
11:55 PM 32.9 °F - 31.8 °F 96% 29.97 in 1.5 mi Calm Calm - N/A   Mist